Regional Weather Roundup
Issued by NWS Boston, MA

Home | Current Version | Previous Version | Text Only | Print | Product List | Glossary On
Versions: 1 2 3 4 5 6 7 8 9 10 11 12 13 14 15 16 17 18 19 20 21 22 23 24 25 26 27
000
ASUS41 KBOX 280110
RWRBOX

REGIONAL WEATHER ROUNDUP
NATIONAL WEATHER SERVICE TAUNTON MA
900 PM EDT SAT AUG 27 2016

NOTE:  "FAIR" INDICATES FEW OR NO CLOUDS BELOW 12,000 FEET WITH NO
SIGNIFICANT WEATHER AND/OR OBSTRUCTIONS TO VISIBILITY.

MAZALL-280200-
EASTERN MASSACHUSETTS

CITY           SKY/WX    TMP DP  RH WIND       PRES   REMARKS
BOSTON         MOCLDY    72  61  68 SE6       30.23R
BEVERLY        CLOUDY    71  62  73 SE7       30.23R
LAWRENCE       CLOUDY    74  59  59 CALM      30.25R
BEDFORD        MOCLDY    74  55  51 E6        30.21R
BLUE HILL        N/A     71  56  58 SE12      30.24R
NORWOOD        PTCLDY    71  59  65 CALM      30.22R
MARSHFIELD     MOCLDY    72  64  78 CALM      30.23R
PLYMOUTH       MOCLDY    71  58  63 E6        30.24R
TAUNTON        CLEAR     65  61  87 CALM      30.22R
NEW BEDFORD    PTCLDY    69  64  84 CALM      30.22R
$$

MAZALL-280200-
CAPE COD AND THE ISLANDS

CITY           SKY/WX    TMP DP  RH WIND       PRES   REMARKS
FALMOUTH       CLEAR     68  63  83 CALM      30.21
HYANNIS        CLEAR     68  59  73 CALM      30.22R
CHATHAM        CLEAR     69  65  86 E5        30.24R
PROVINCETOWN   CLEAR     66  61  84 SW3       30.24R
NANTUCKET      CLEAR     64  61  90 E3        30.22R
MARTHAS VNYRD  CLEAR     62  59  90 NW3       30.23R
$$

MAZALL-280200-
CENTRAL AND WESTERN MASSACHUSETTS

CITY           SKY/WX    TMP DP  RH WIND       PRES   REMARKS
WORCESTER      CLEAR     72  62  71 S9        30.25R
FITCHBURG      CLEAR     76  57  51 NE5       30.23R
ORANGE         CLEAR     70  64  81 CALM      30.22R
SPRINGFIELD    PTCLDY    76  63  63 S7        30.19R
WESTFIELD      PTCLDY    72  65  78 S3        30.20R
NORTH ADAMS    CLEAR     67  63  87 CALM      30.24R
PITTSFIELD     CLEAR     69  60  73 CALM      30.24R
$$

RIZALL-280200-
RHODE ISLAND

CITY           SKY/WX    TMP DP  RH WIND       PRES   REMARKS
PROVIDENCE     CLEAR     73  65  75 S5        30.23R
NEWPORT        PTCLDY    71  65  81 CALM      30.23R
BLOCK ISLAND   CLEAR     72  67  84 CALM      30.24R
SMITHFIELD     CLEAR     71  64  78 CALM      30.24R
WESTERLY       CLEAR     72  64  76 CALM      30.24R
$$

CTZALL-280200-
CONNECTICUT

CITY           SKY/WX    TMP DP  RH WIND       PRES   REMARKS
BRADLEY INTL   PTCLDY    78  60  53 S8        30.21R
HARTFORD       CLEAR     79  62  56 S6        30.20R
BRIDGEPORT     CLEAR     78  67  68 S5        30.21R
DANBURY        CLEAR     71  60  68 CALM      30.24R
GROTON         CLEAR     73  65  75 SE5       30.22R
NEW HAVEN      PTCLDY    75  63  66 S8        30.22R
CHESTER        FAIR      73  63  68 S3        30.24R
MERIDEN        CLEAR     73  62  68 CALM      30.21R
WILLIMANTIC    CLEAR     75  61  61 CALM      30.23R
OXFORD         CLEAR     72  55  56 S5        30.27R
$$

MEZ002-015-021-024-NHZ003-005-008-011-012-014-VTZ005-008-280200-
NORTHERN NEW ENGLAND

CITY           SKY/WX    TMP DP  RH WIND       PRES   REMARKS
PORTLAND ME    PTCLDY    69  58  67 S3        30.23R
BANGOR ME      CLEAR     63  55  75 CALM      30.25R
CONCORD NH     PTCLDY    74  56  53 SE3       30.23R
MANCHESTER NH  MOCLDY    77  54  44 S5        30.22R
NASHUA NH      CLOUDY    77  57  50 SE5       30.23R
PORTSMOUTH NH  PTCLDY    68  58  70 SE3       30.21R
JAFFREY NH     CLOUDY    70  61  73 CALM      30.25R
KEENE NH       PTCLDY    69  66  90 CALM      30.22R
BURLINGTON VT  MOCLDY    75  57  53 CALM      30.23R
MT. WASHINGTON PTCLDY    50  46  87 S8          N/A
$$

NYZ052-076-280200-
EASTERN NEW YORK

CITY           SKY/WX    TMP DP  RH WIND       PRES   REMARKS
ALBANY         PTCLDY    73  66  78 CALM      30.20R
NEW YORK CITY  MOCLDY    81  58  45 SE7       30.21R
$$

ANZALL-280200-
MARINE OBSERVATIONS

STATION/POSITION TIME  TEMP    WIND        PRES    VSBY  WAVE
                       AIR SEA DIR/SP/G                  HT/PER
                 (UTC) (F)     (DEG/KT/KT) (MB)    (MI)  (FT/S)
BOSTON BUOY      0050   70 70  150/  6/  6 1023.0R         1/ 6
BUZZARDS BAY     0100   72     130/  3/  4 1024.1R
NANTUCKET SOUND  0050   72 75   80/  8/ 10 1022.9R         1
MASS BAY-STELLWA 0004   69 69  170/  2/  4 1022.2R  1 7/8  1/ 8
ISLE OF SHOALS   0100   69     180/  4/  5 1023.5R
S OF BLOCK IS    0025      76                N/A           2/ 9
$$

......................KEY.........................
  SKY/WX - SKY CONDITION/PRESENT WEATHER
  TMP    - TEMPERATURE IN FAHRENHEIT
  DWPT   - DEWPOINT IN FAHRENHEIT
  RH     - RELATIVE HUMIDITY IN PERCENT
  WIND   - DIRECTION AND SPEED IN MPH
  PRES   - MEAN SEA LEVEL PRESSURE IN INCHES OF HG
  WCI    - WIND CHILL INDEX
  VSB    - VISIBILITY IN MILES
  HX     - HEAT INDEX
  TC     - TEMPERATURE IN CELSIUS
  VRB    - VARIABLE WIND DIRECTION
  N/A    - NOT AVAILABLE




USA.gov is the U.S. government's official web portal to all federal, state and local government web resources and services.